TimePDT,TemperatureF,Dew PointF,Humidity,Sea Level PressureIn,VisibilityMPH,Wind Direction,Wind SpeedMPH,Gust SpeedMPH,PrecipitationIn,Events,Conditions,WindDirDegrees,DateUTC
12:54 AM,57.0,54.0,89,29.89,10.0,SW,6.9,-,N/A,,Clear,230,2012-09-10 07:54:00
1:54 AM,57.0,54.0,89,29.89,10.0,SW,10.4,-,N/A,,Clear,230,2012-09-10 08:54:00
2:16 AM,57.2,53.6,88,29.91,10.0,SW,11.5,-,N/A,,Partly Cloudy,230,2012-09-10 09:16:00
2:29 AM,57.2,53.6,88,29.91,10.0,SW,11.5,-,N/A,,Mostly Cloudy,230,2012-09-10 09:29:00
2:51 AM,57.2,53.6,88,29.91,10.0,Calm,Calm,-,N/A,,Overcast,0,2012-09-10 09:51:00
2:54 AM,57.0,54.0,89,29.88,10.0,Variable,3.5,-,N/A,,Overcast,0,2012-09-10 09:54:00
3:54 AM,55.0,52.0,89,29.88,10.0,West,3.5,-,N/A,,Overcast,280,2012-09-10 10:54:00
4:54 AM,55.9,53.1,90,29.88,10.0,NW,4.6,-,N/A,,Overcast,320,2012-09-10 11:54:00
5:54 AM,55.9,53.1,90,29.88,10.0,Calm,Calm,-,N/A,,Overcast,0,2012-09-10 12:54:00
6:54 AM,55.9,53.1,90,29.89,10.0,WSW,5.8,-,N/A,,Overcast,250,2012-09-10 13:54:00
7:54 AM,55.9,53.1,90,29.90,10.0,Calm,Calm,-,N/A,,Overcast,0,2012-09-10 14:54:00
8:54 AM,57.0,53.1,87,29.92,10.0,Calm,Calm,-,N/A,,Overcast,0,2012-09-10 15:54:00
9:54 AM,60.1,53.1,78,29.92,10.0,WSW,6.9,-,N/A,,Mostly Cloudy,240,2012-09-10 16:54:00
10:18 AM,60.8,53.6,77,29.94,10.0,SW,5.8,-,N/A,,Partly Cloudy,220,2012-09-10 17:18:00
10:54 AM,63.0,53.1,70,29.91,10.0,SSW,8.1,-,N/A,,Clear,200,2012-09-10 17:54:00
11:54 AM,66.9,53.1,61,29.90,10.0,South,5.8,-,N/A,,Clear,190,2012-09-10 18:54:00
12:51 PM,73.4,51.8,47,29.91,10.0,Variable,4.6,-,N/A,,Scattered Clouds,0,2012-09-10 19:51:00
12:54 PM,73.0,50.0,44,29.88,10.0,SSW,3.5,-,N/A,,Clear,210,2012-09-10 19:54:00
1:54 PM,78.1,52.0,40,29.85,10.0,South,5.8,-,N/A,,Clear,190,2012-09-10 20:54:00
2:54 PM,82.0,51.1,34,29.83,10.0,SSW,8.1,-,N/A,,Clear,210,2012-09-10 21:54:00
3:54 PM,82.0,54.0,38,29.80,10.0,SSW,12.7,-,N/A,,Clear,200,2012-09-10 22:54:00
4:54 PM,81.0,54.0,39,29.79,10.0,SSW,13.8,-,N/A,,Clear,200,2012-09-10 23:54:00
5:54 PM,75.9,55.0,48,29.78,10.0,SSW,11.5,-,N/A,,Clear,200,2012-09-11 00:54:00
6:54 PM,71.1,55.0,57,29.78,10.0,South,8.1,-,N/A,,Clear,190,2012-09-11 01:54:00
7:54 PM,66.0,54.0,65,29.78,10.0,South,3.5,-,N/A,,Clear,170,2012-09-11 02:54:00
8:54 PM,61.0,54.0,78,29.80,10.0,SSW,6.9,-,N/A,,Clear,200,2012-09-11 03:54:00
9:54 PM,57.9,53.1,84,29.81,10.0,South,4.6,-,N/A,,Clear,190,2012-09-11 04:54:00
10:54 PM,59.0,54.0,83,29.82,10.0,SE,4.6,-,N/A,,Clear,140,2012-09-11 05:54:00
11:54 PM,59.0,54.0,83,29.82,10.0,SSW,15.0,-,N/A,,Clear,210,2012-09-11 06:54:00